Anvik, AK

5:48 AM AKDT on August 19, 2017 (GMT -0800)
Anvik

Weather History for PANV - August, 2013

Change the Weather History Date:

Saturday, August 17, 2013

  Actual Average Record
Temperature  
Mean Temperature 58 °F -  
Max Temperature 64 °F 54 °F 71 °F (2007)
Min Temperature 51 °F 43 °F 39 °F (2003)
Degree Days  
Heating Degree Days 8    
Growing Degree Days 8 (Base 50)    
Moisture  
Dew Point 51 °F    
Average Humidity 79    
Maximum Humidity 88    
Minimum Humidity 63    
Precipitation  
Precipitation 0.19 in - - ()
Sea Level Pressure  
Sea Level Pressure 29.63 in    
Wind  
Wind Speed 5 mph (NNW)    
Max Wind Speed 10 mph    
Max Gust Speed -    
Visibility 10 miles    
Events      
Averages and records for this station are not official NWS values.
T = Trace of Precipitation, MM = Missing Value Source: NWS Daily Summary

Daily Weather History Graph

Daily Weather History Graph

Search for Another Location

Airport or City:

Trip Planner

Search our weather history database for the weather conditions in past years. The results will help you decide how hot, cold, wet, or windy it might be!

Date:

Astronomy

Aug. 17, 2013 Rise Set
Actual Time 6:48 AM AKDT 10:39 PM AKDT
Civil Twilight 5:50 AM AKDT 11:36 PM AKDT
Nautical Twilight 4:16 AM AKDT 1:06 AM AKDT
Astronomical Twilight Sun does not set Sun does not set
Moon 8:36 PM AKDT (8/17) 2:22 AM AKDT (8/17)
Length of Visible Light 17h 45m
Length of Day
15h 51m
Waxing Gibbous, 85% of the Moon is Illuminated
Aug 17
Waxing Gibbous
Aug 20
Full
Aug 28
Last Quarter
Sep 5
New
Sep 12
First Quarter

Hourly Weather History & Observations

Time (AKDT) Temp. Dew Point Humidity Pressure Visibility Wind Dir Wind Speed Gust Speed Precip Events Conditions
12:16 AM 57.2 °F 51.8 °F 82% 29.62 in 10.0 mi North 5.8 mph - N/A   Scattered Clouds
1:56 AM 55.4 °F 50.0 °F 82% 29.63 in 10.0 mi NW 5.8 mph - N/A   Clear
2:16 AM 55.4 °F 50.0 °F 82% 29.63 in 10.0 mi NW 5.8 mph - N/A   Clear
2:36 AM 53.6 °F 48.2 °F 82% 29.63 in 10.0 mi NNW 3.5 mph - N/A   Clear
2:56 AM 55.4 °F 48.2 °F 77% 29.62 in 10.0 mi NW 5.8 mph - N/A   Clear
3:16 AM 53.6 °F 48.2 °F 82% 29.62 in 10.0 mi NW 4.6 mph - N/A   Clear
3:36 AM 53.6 °F 48.2 °F 82% 29.62 in 10.0 mi NNW 6.9 mph - N/A   Clear
3:56 AM 53.6 °F 48.2 °F 82% 29.62 in 10.0 mi NW 4.6 mph - N/A   Scattered Clouds
4:16 AM 53.6 °F 48.2 °F 82% 29.62 in 10.0 mi NNW 5.8 mph - N/A   Overcast
4:36 AM 53.6 °F 48.2 °F 82% 29.62 in 10.0 mi NW 5.8 mph - N/A   Mostly Cloudy
4:56 AM 53.6 °F 48.2 °F 82% 29.62 in 10.0 mi North 5.8 mph - N/A   Partly Cloudy
5:16 AM 53.6 °F 48.2 °F 82% 29.62 in 10.0 mi NNW 5.8 mph - N/A   Clear
5:36 AM 53.6 °F 48.2 °F 82% 29.62 in 10.0 mi NNW 5.8 mph - N/A   Clear
5:56 AM 53.6 °F 48.2 °F 82% 29.62 in 10.0 mi NNW 4.6 mph - N/A   Clear
6:16 AM 53.6 °F 48.2 °F 82% 29.62 in 10.0 mi NNW 4.6 mph - N/A   Clear
6:36 AM 53.6 °F 48.2 °F 82% 29.62 in 10.0 mi NNW 4.6 mph - N/A   Clear
6:56 AM 51.8 °F 48.2 °F 88% 29.62 in 10.0 mi NW 4.6 mph - N/A   Clear
7:16 AM 51.8 °F 48.2 °F 88% 29.62 in 10.0 mi NW 4.6 mph - N/A   Clear
7:36 AM 51.8 °F 48.2 °F 88% 29.62 in 10.0 mi NW 3.5 mph - N/A   Clear
7:56 AM 51.8 °F 48.2 °F 88% 29.63 in 10.0 mi NNW 4.6 mph - N/A   Clear
8:16 AM 53.6 °F 48.2 °F 82% 29.63 in 10.0 mi North 4.6 mph - N/A   Clear
8:36 AM 53.6 °F 48.2 °F 82% 29.63 in 10.0 mi NNW 3.5 mph - N/A   Clear
8:56 AM 53.6 °F 48.2 °F 82% 29.63 in 9.0 mi NW 4.6 mph - N/A   Clear
9:16 AM 53.6 °F 48.2 °F 82% 29.64 in 7.0 mi NW 3.5 mph - N/A   Partly Cloudy
9:36 AM 53.6 °F 48.2 °F 82% 29.64 in 10.0 mi NW 3.5 mph - N/A   Partly Cloudy
9:56 AM 53.6 °F 48.2 °F 82% 29.64 in 9.0 mi NNW 3.5 mph - N/A   Clear
10:16 AM 53.6 °F 50.0 °F 88% 29.64 in 7.0 mi NW 3.5 mph - N/A   Scattered Clouds
10:36 AM 55.4 °F 51.8 °F 88% 29.64 in 10.0 mi North 4.6 mph - N/A   Partly Cloudy
10:56 AM 55.4 °F 51.8 °F 88% 29.64 in 5.0 mi Calm Calm - N/A   Clear
11:16 AM 57.2 °F 51.8 °F 82% 29.64 in 10.0 mi North 5.8 mph - N/A   Clear
11:36 AM 59.0 °F 51.8 °F 77% 29.64 in 10.0 mi NNE 5.8 mph - N/A   Mostly Cloudy
11:56 AM 59.0 °F 51.8 °F 77% 29.64 in 10.0 mi NNE 4.6 mph - N/A   Overcast
1:36 PM 62.6 °F 53.6 °F 72% 29.64 in 10.0 mi NNE 3.5 mph - N/A   Mostly Cloudy
1:56 PM 64.4 °F 53.6 °F 68% 29.64 in 10.0 mi Calm Calm - N/A   Overcast
2:16 PM 64.4 °F 53.6 °F 68% 29.64 in 10.0 mi NE 5.8 mph - N/A   Overcast
2:36 PM 64.4 °F 51.8 °F 64% 29.63 in 10.0 mi NE 10.4 mph - N/A   Mostly Cloudy
2:56 PM 64.4 °F 53.6 °F 68% 29.63 in 10.0 mi East 8.1 mph - N/A   Overcast
3:16 PM 62.6 °F 55.4 °F 77% 29.64 in 10.0 mi ESE 6.9 mph - N/A   Mostly Cloudy
3:36 PM 62.6 °F 53.6 °F 72% 29.63 in 10.0 mi ESE 6.9 mph - N/A   Scattered Clouds
3:56 PM 62.6 °F 55.4 °F 77% 29.63 in 10.0 mi ESE 4.6 mph - N/A   Mostly Cloudy
4:16 PM 60.8 °F 55.4 °F 82% 29.64 in 5.0 mi Calm Calm - 0.17 in   Mostly Cloudy
4:56 PM 59.0 °F 55.4 °F 88% 29.63 in 10.0 mi Calm Calm - 0.17 in   Overcast
5:16 PM 60.8 °F 55.4 °F 82% 29.63 in 10.0 mi Calm Calm - N/A   Overcast
5:36 PM 60.8 °F 55.4 °F 82% 29.63 in 1.8 mi Calm Calm - N/A   Overcast
5:56 PM 60.8 °F 55.4 °F 82% 29.63 in 9.0 mi WNW 3.5 mph - N/A   Overcast
6:16 PM 60.8 °F 55.4 °F 82% 29.62 in 10.0 mi West 3.5 mph - 0.02 in   Overcast
6:36 PM 60.8 °F 55.4 °F 82% 29.63 in 9.0 mi NNW 4.6 mph - 0.02 in   Overcast
6:56 PM 60.8 °F 53.6 °F 77% 29.63 in 9.0 mi NW 3.5 mph - 0.02 in   Overcast
7:16 PM 60.8 °F 53.6 °F 77% 29.63 in 10.0 mi North 4.6 mph - N/A   Overcast
7:36 PM 60.8 °F 55.4 °F 82% 29.63 in 10.0 mi NNW 6.9 mph - N/A   Overcast
7:56 PM 62.6 °F 55.4 °F 77% 29.63 in 10.0 mi NNE 6.9 mph - N/A   Mostly Cloudy
8:16 PM 62.6 °F 55.4 °F 77% 29.63 in 10.0 mi Calm Calm - N/A   Overcast
8:36 PM 60.8 °F 55.4 °F 82% 29.64 in 10.0 mi North 4.6 mph - N/A   Overcast
8:56 PM 60.8 °F 53.6 °F 77% 29.64 in 10.0 mi NNW 5.8 mph - N/A   Overcast
9:16 PM 60.8 °F 50.0 °F 68% 29.64 in 10.0 mi NW 5.8 mph - N/A   Overcast
9:36 PM 60.8 °F 48.2 °F 63% 29.64 in 10.0 mi NW 6.9 mph - N/A   Mostly Cloudy
9:56 PM 60.8 °F 48.2 °F 63% 29.64 in 10.0 mi NNW 8.1 mph - N/A   Overcast
10:16 PM 59.0 °F 48.2 °F 67% 29.65 in 10.0 mi NNW 5.8 mph - N/A   Overcast
10:36 PM 57.2 °F 48.2 °F 72% 29.65 in 10.0 mi NNW 5.8 mph - N/A   Overcast
10:56 PM 55.4 °F 46.4 °F 72% 29.65 in 10.0 mi NW 6.9 mph - N/A   Overcast
11:36 PM 53.6 °F 46.4 °F 77% 29.65 in 10.0 mi NW 4.6 mph - N/A   Clear